Hourly Data Report for December 23, 2003

SHERBROOKE A
QUEBEC

45°26'00.000" N
71°41'00.000" W
241.40 m
7028124
71610
YSC

Download Data

Hourly Data (December 2003)
Hourly Data Report for December 23, 2003
TIME
LST
Temp Definition
°C
Dew Point Definition
°C
Rel Hum Definition
%
Precip. Amount Definition
mm

Wind Dir Definition
10's deg

Wind Spd Definition
km/h
Visibility Definition
km
Stn Press Definition
kPa
Hmdx Definition


Wind Chill Definition


Weather Definition


00:00 1.9 -1.5 78   23 6 15.0 98.50      
01:00 1.4 -1.2 83   23 6 15.0 98.54      
02:00 1.1 -1.1 85     0 15.0 98.61      
03:00 0.6 -0.9 90     0 11.3 98.65      
04:00 0.6 -0.8 90     0 11.3 98.66      
05:00 1.2 -0.9 86     0 15.0 98.66      
06:00 0.6 -0.8 90   15 6 8.0 98.72      
07:00 0.4 -0.8 92   1 4 6.4 98.78      
08:00 0.4 -0.7 92   11 6 16.1 98.83     Cloudy
09:00 1.2 -0.4 89   8 4 19.3 98.82     Cloudy
10:00 2.0 -0.4 84   7 4 19.3 98.79     Cloudy
11:00 2.5 -0.3 82   6 6 19.3 98.71     Mostly Cloudy
12:00 2.7 0.0 82   11 6 19.3 98.61     Rain
13:00 3.2 0.0 79   11 6 19.3 98.56     Cloudy
14:00 2.8 0.2 83   10 9 24.1 98.56     Rain
15:00 2.6 0.9 89   8 6 16.1 98.58     Rain
16:00 2.6 1.0 89   7 4 24.1 98.56     Mostly Cloudy
17:00 3.4 1.2 85   10 11 24.1 98.51     Mostly Cloudy
18:00 1.7 0.2 90   2 4 8.0 98.49      
19:00 0.8 -0.3 92   11 6 4.0 98.47      
20:00 0.5 -0.7 92   4 4 3.5 98.38      
21:00 0.2 -0.8 93     0 4.8 98.43      
22:00 0.0 -0.9 94   1 4 0.6 98.45   -1  
23:00 1.8 0.5 91     0 15.0 98.47      

Notes on Data Quality.

Legend

  • E = Estimated
  • M = Missing
  • NA = Not Available*
  • [empty] = Indicates an unobserved value
Date modified: